Location: ??????????
(54.8537°N, 38.8755°E)
Time: 15:18:30
(UTC+00:00)

S-56A Canister/Altair - Pass Details

Date: 16 September 2024
Orbit: 636 x 2487 km, 38.9° (Epoch: 09 October)

Event Time Altitude Azimuth Distance (km) Brightness Sun altitude
Rises 19:01:11 0° 252° (WSW) 3,753 11.3 -26.3°
Reaches altitude 10° 19:04:04 10° 238° (WSW) 3,041 10.6 -26.5°
Enters shadow 19:08:16 23° 204° (SSW) 2,548 9.9 -26.9°
